This demonstration page uses our WeatherBlox Daily Observations layout. Learn more.

Left ArrowRight Arrow

34.02893, -84.19858

Hourly Observations for November 1, 2019

Temp ( °F °C ) Dew Point ( °F °C ) Humidity (%) Winds ( mph kmh ) Pressure ( in mb ) Visibility ( mi km ) Precip ( " mm )
12:51 am 00:51 Partly Cloudy 37 3 30 -1 75 75 NW 13 20 30.24 1024 10 16 0.00 0.00
12:53 am 00:53 Mostly Clear 37 2.8 30 -1.1 76 76 NW 13 20 30.20 1023 10 16 0.00 0.00
1:53 am 01:53 Clear 37 2.8 29 -1.7 73 73 NW 15 24 30.22 1023 10 16 0.00 0.00
2:53 am 02:53 Clear 36 2.2 29 -1.7 76 76 NNW 10 17 30.22 1024 10 16 0.00 0.00
3:53 am 03:53 Clear 36 2.2 30 -1.1 79 79 NNW 10 17 30.23 1024 10 16 0.00 0.00
4:53 am 04:53 Clear 35 1.7 28 -2.2 76 76 NW 9 15 30.24 1024 10 16 0.00 0.00
5:53 am 05:53 Clear 34 1.1 27 -2.8 76 76 NW 9 15 30.27 1025 10 16 0.00 0.00
6:53 am 06:53 Clear 33 0.6 28 -2.2 82 82 NW 9 15 30.29 1026 10 16 0.00 0.00
7:53 am 07:53 Clear 33 0.6 27 -2.8 78 78 NW 10 17 30.30 1026 10 16 0.00 0.00
8:53 am 08:53 Sunny 34 1.1 28 -2.2 79 79 NW 9 15 30.31 1026 10 16 0.00 0.00
9:53 am 09:53 Sunny 39 3.9 30 -1.1 70 70 NW 10 17 30.33 1027 10 16 0.00 0.00
10:53 am 10:53 Sunny 42 5.6 30 -1.1 62 62 N 7 11 30.34 1027 10 16 0.00 0.00
11:53 am 11:53 Sunny 46 7.8 32 0 58 58 NW 9 15 30.33 1027 10 16 0.00 0.00
12:53 pm 12:53 Sunny 48 8.9 32 0 54 54 VRB 3 6 30.32 1027 10 16 0.00 0.00
1:53 pm 13:53 Sunny 51 10.6 32 0 48 48 Calm 30.28 1026 10 16 0.00 0.00
2:53 pm 14:53 Sunny 53 11.7 34 1.1 48 48 VRB 5 7 30.25 1025 10 16 0.00 0.00
3:53 pm 15:53 Sunny 54 12.2 33 0.6 45 45 VRB 5 7 30.23 1024 10 16 0.00 0.00
4:53 pm 16:53 Sunny 57 13.9 34 1.1 42 42 undefined N/A 30.22 1024 10 16 0.00 0.00
5:53 pm 17:53 Sunny 54 12.2 36 2.2 51 51 VRB 5 7 30.23 1024 10 16 0.00 0.00
6:53 pm 18:53 Clear 50 10 37 2.8 61 61 WNW 7 11 30.24 1024 10 16 0.00 0.00
7:53 pm 19:53 Clear 47 8.3 37 2.8 69 69 WNW 5 7 30.27 1025 10 16 0.00 0.00
8:53 pm 20:53 Clear 45 7.2 37 2.8 74 74 WNW 3 6 30.27 1025 10 16 0.00 0.00
9:53 pm 21:53 Clear 42 5.6 37 2.8 82 82 Calm 30.26 1025 10 16 0.00 0.00
10:53 pm 22:53 Clear 39 3.9 36 2.2 89 89 Calm 30.26 1025 10 16 0.00 0.00
11:53 pm 23:53 Clear 38 3.3 36 2.2 93 93 Calm 30.25 1024 10 16 0.00 0.00

Powered by AerisWeather